Regional Weather Roundup
Issued by NWS Cleveland, OH

Home | Current Version | Previous Version | Graphics & Text | Print | Product List | Glossary On
Versions: 1 2 3 4 5 6 7 8 9 10 11 12 13 14 15 16 17 18 19 20 21 22 23 24 25 26 27 28 29 30 31 32 33 34 35 36 37 38 39 40 41 42 43 44 45 46 47 48 49 50
000
ASUS41 KCLE 111510
RWRCLE
OHIO REGIONAL WEATHER ROUNDUP
NATIONAL WEATHER SERVICE CLEVELAND, OH
1000 AM EST MON DEC 11 2017

NOTE: "FAIR" INDICATES FEW OR NO CLOUDS BELOW 12,000 FEET WITH NO
SIGNIFICANT WEATHER AND/OR OBSTRUCTIONS TO VISIBILITY.

OHZ001>008-015>018-024>027-034-035-043-044-111600-
   NORTHWEST OHIO

CITY           SKY/WX    TMP DP  RH WIND       PRES   REMARKS
DEFIANCE       LGT SNOW  29  23  78 S7        29.99F WCI  22
FINDLAY        CLOUDY    29  21  72 S9        30.00F WCI  20
TOLEDO EXPRESS LGT SNOW  27  24  89 SE5       30.00F FOG     WCI  22
TOLEDO EXEC    LGT SNOW  28  22  78 SE9       30.01F WCI  19
LIMA           CLOUDY    29  22  75 S13       29.99F WCI  19
$$

OHZ009>014-019>023-028>033-038-089-111600-
   NORTHEAST OHIO

CITY           SKY/WX    TMP DP  RH WIND       PRES   REMARKS
CLE-HOPKINS    CLOUDY    29  21  72 SW7       30.06F WCI  22
CLE-LAKEFRONT  CLOUDY    30  20  66 SW12      30.04F WCI  20
CUY CO. ARPT   CLOUDY    30  21  69 W10       30.04S WCI  21
LORAIN-ELYRIA  MOSUNNY   26  17  68 SW7       30.05F WCI  18
ASHTABULA      CLOUDY    29  21  72 SW3       30.01F
AKRON-CANTON   CLOUDY    30  17  58 SW10      30.02F WCI  21
WOOSTER        MOSUNNY   29  18  63 W5        30.03F WCI  24
MANSFIELD      CLOUDY    28  18  66 SW7       30.03F WCI  21
YOUNGSTOWN     CLOUDY    29  19  66 SW9       30.01S WCI  20
$$

OHZ042-051>053-060>062-070>072-077>081-111600-
  SOUTHWEST OHIO

CITY           SKY/WX    TMP DP  RH WIND       PRES   REMARKS
CINC-COVINGTON CLOUDY    30  26  85 S5        30.04F WCI  25
CINC-LUNKEN    CLOUDY    29  26  89 VRB3      30.08F
HAMILTON       CLOUDY    30  27  88 CALM      30.06F
DAYTON         PTSUNNY   30  24  78 S9        30.02F WCI  22
WRIGHT-PAT AFB PTSUNNY   31  23  72 SE8       30.02F WCI  24
DAYTON GENERAL CLOUDY    29  23  78 S6        30.02F WCI  23
WILMINGTON     CLOUDY    28  25  88 S5        30.04F WCI  23
$$

OHZ036-037-039>041-045>050-054>059-063>069-073>076-082>088-111600-
  CENTRAL AND SOUTHEAST OHIO

CITY           SKY/WX    TMP DP  RH WIND       PRES   REMARKS
COLUMBUS       CLOUDY    32  22  66 SW8       30.06S WCI  25
OSU AIRPORT    CLOUDY    31  22  69 SW8       30.04F WCI  23
BOLTON FIELD   CLOUDY    30  21  69 SW7       30.06F WCI  23
RICKENBACK AFB MOSUNNY   32  22  66 SW7       30.07S WCI  26
NEWARK         PTSUNNY   32  21  64 SW8       30.05F WCI  25
MARION         CLOUDY    29  20  69 S6        30.04S WCI  23
LANCASTER      CLOUDY    33  22  63 SW8       30.07R WCI  26
ZANESVILLE     CLOUDY    32  20  61 W7        30.07R WCI  26
NEW PHILLY     NOT AVBL
$$



USA.gov is the U.S. government's official web portal to all federal, state and local government web resources and services.